Simultaneous Nadir Overpasses (SNOs) Predictions

Prediction of SNOs between NOAA-19 and NPP Satellite Orbit:

Table of predicted SNOs for the next 14.0 days since TLE Epoch: 5/18/2018
Index Date (NOAA-19) Time (NOAA-19) Lat,Lon (NOAA-19) SZA (NOAA-19 ) Date (NPP) Time (NPP) Lat,Lon (NPP) SZA (NPP ) Distance(km) Time Diff (sec)
1 05/28/2018 14:30:53 80.50, -84.57 62.06 05/28/2018 14:32:05 80.53, -83.24 61.88 24.81 72
2 05/28/2018 15:21:56 -80.55, 83.74 118.05 05/28/2018 15:22:51 -80.56, 83.68 118.06 1.67 55
3 05/28/2018 16:12:51 80.55,-108.98 61.95 05/28/2018 16:13:36 80.56,-108.98 61.93 1.01 45
4 05/28/2018 17:03:57 -80.55, 58.30 118.07 05/28/2018 17:04:21 -80.56, 58.27 118.07 1.32 24
5 05/28/2018 17:54:52 80.55,-134.42 61.93 05/28/2018 17:55:06 80.56,-134.39 61.93 1.13 14
6 05/28/2018 18:45:58 -80.56, 32.86 118.08 05/28/2018 18:45:51 -80.57, 32.86 118.07 1.18 7
7 05/28/2018 19:36:53 80.56,-159.86 61.92 05/28/2018 19:36:36 80.57,-159.80 61.92 1.51 17
8 05/28/2018 20:27:59 -80.56, 7.42 118.10 05/28/2018 20:27:21 -80.57, 7.46 118.08 1.31 38
9 05/28/2018 21:18:54 80.56, 174.70 61.90 05/28/2018 21:18:06 80.57, 174.80 61.92 2.01 48
10 05/28/2018 22:10:00 -80.56, -18.02 118.12 05/28/2018 22:08:51 -80.57, -17.95 118.08 1.65 69




NCC Satellite Simultaneous Nadir Overpasses (SNOs) Prediction Service
